STARLINK-31981, 60035

Orbit data source: Space-Track

STARLINK-31981, 60035 is a payload satellite owned by SpaceX/Seattle (US) in LEO that was launched on Sat, 08 Jun 2024 UTC via an FALCON 9 launch vehicle from the Air Force Eastern Test Range (AFETR). Payload-class satellites include a variety of spacecraft equipped with specific instruments for various scientific and technological missions. These include communications satellites like Starlink; space stations such as the ISS; scientific satellites like the Hubble; Earth observation satellites from companies like Planet Labs, Umbra, and HawkEye 360; GPS; miniature CubeSats for education and research; and military/defense satellites.

Loading next visibility...
Identifier
60035, 2024-111V
Orbit
LEO
Country
Flag of USUS
Related business
Manufacturer
SpaceX/Seattle
Mission
Operational Commercial Communications
Bus & Motor
STARLINK V2M, Unknown motor
Mass
730 kg wet, ~700 kg dry
Launch date (UTC)
2024-06-08 (2 years ago)
Launch vehicle
FALCON 9
Launch site
Air Force Eastern Test Range (AFETR)
Object type
Payload
Rocket body
Debris
Shape & HBR
Box + 2 Pan, 17.7 m
Radar Cross Section
33.884 m², Large (>1 m²)

Expand to show TLE details & history
Last TLE update: 3 days ago

TLE from 3 days ago
0 STARLINK-31981
1 60035U 24111V   26170.79036302 -.00001799  00000-0 -48592-4 0  9999
2 60035  53.1620 321.5104 0001514  63.9067 296.2089 15.30223775114592
Epoch: 2026-06-19T18:58Z
TLE epoch observation values (Epoch: 2026-06-19T18:58:07.364Z)
Latitude
-0.00008°
Longitude
128.96537°
Altitude
475.586 km
Speed
7.629 km/s
True Right ascension
21h 26m 02s
True Declination
0° 00' 00"
Sunlit
Object was in full shadow at epoch
Visualization orbit readout
Latitude
Unknown
Longitude
Unknown
Altitude
Unknown
Speed
Unknown
Apparent Right ascension
Unknown
Apparent Declination
Unknown
Sunlit
N/A
Visualization observer readout
Local Sidereal Time
00:34:47
Azimuth
Unknown
Elevation
Unknown
Doppler factor
Unknown
Orbital elements
Apogee altitude
476.438 km
Perigee altitude
474.363 km
Semi-major axis
6,853.537 km
Eccentricity
0.00015
Inclination
53.162°
RAAN
321.5104°
Arg. of periapsis
63.9067°
True anomaly
296.19333°
Mean anomaly
296.2089°
Eccentric anomaly
296.20112°
Mean motion
3.82535 °/min
Orbital period
94.11 mins
BSTAR
-0.000048592
Loading maneuver chart data...
Computing Atmospheric mass density...
Loading historical data...
Loading historical data...
Loading historical data...
Loading historical data...
Loading historical data...
Loading historical data...
Loading historical data...

Documentation

Showing up to 5 results
|